Regional Weather Roundup
Issued by NWS

Home | Current Version | Previous Version | Graphics & Text | Print | Product List | Glossary On
Versions: 1 2 3 4 5 6 7 8 9 10 11 12 13 14 15 16 17 18 19 20 21 22 23 24 25 26 27 28 29 30 31 32 33 34 35 36 37 38 39 40 41 42 43 44 45 46 47 48 49 50
000
ASUS43 KLMK 250802
RWRKY
KENTUCKY REGIONAL WEATHER ROUNDUP
NATIONAL WEATHER SERVICE LOUISVILLE KY
400 AM EDT TUE APR 25 2017

NOTE "FAIR" INDICATES FEW OR NO CLOUDS BELOW 12,000 FEET
WITH NO SIGNIFICANT WEATHER AND/OR OBSTRUCTIONS TO VISIBILITY.

KYZ001>023-026-027-061>063-070>075-250900-
WESTERN AND SOUTH CENTRAL KENTUCKY

CITY           SKY/WX    TMP DP  RH WIND       PRES   REMARKS
PADUCAH        CLEAR     59  54  83 SW5       29.73F
HENDERSON      CLEAR     55  52  89 S3        29.75S
OWENSBORO      CLEAR     59  54  83 CALM      29.76S
HOPKINSVILLE   CLEAR     53  53 100 SW7       29.76S
BOWLING GREEN  CLEAR     52  52 100 CALM      29.76S FOG
GLASGOW        NOT AVBL
$$

KYZ024-025-028>034-038-045-046-053-250900-
NORTH CENTRAL KENTUCKY

CITY           SKY/WX    TMP DP  RH WIND       PRES   REMARKS
LOUISVILLE/SDF PTCLDY    59  53  80 CALM      29.76S
LOUISVILLE/LOU CLEAR     60  54  80 CALM      29.77S
FORT KNOX      CLEAR     52  51  98 CALM      29.75S
$$

KYZ035>037-039>044-047>052-055>060-089>105-250900-
NORTHEAST KENTUCKY

CITY           SKY/WX    TMP DP  RH WIND       PRES   REMARKS
LEXINGTON      CLEAR     55  51  86 E6        29.77S
COVINGTON      PTCLDY    55  51  86 E8        29.78F
FRANKFORT      CLEAR     55  50  83 CALM      29.77R
$$

KYZ054-064>069-076>088-106>120-250900-
SOUTHEAST KENTUCKY

CITY           SKY/WX    TMP DP  RH WIND       PRES   REMARKS
JACKSON        CLOUDY    53  51  93 CALM      29.76S
LONDON         MOCLDY    51  48  89 CALM      29.76F
SOMERSET       CLEAR     52  52 100 CALM      29.77S
MIDDLESBORO    MOCLDY    51  51 100 CALM      29.76R
MONTICELLO     SUNNY     52  51  97 VRB6      29.78R
$$




USA.gov is the U.S. government's official web portal to all federal, state and local government web resources and services.